sat.trackr.live / text

‹ back to catalog

STARLINK-30921

NORAD 58383 · 2023-178K

PAYLOAD ACTIVE UNKNOWN

§ Identity

Operator
Country
US
Launch date
2023-11-20
Launch site
AFWTR
Launch vehicle
Mass (kg)
RCS (m²)

Purposes: comms

External: N2YO · Heavens-Above · Gunter

§ Orbital elements

Epoch: 2026-09-20T11:16:14.704896Z

Period
93.85 min
Inclination
53.1589°
Eccentricity
0.0000928
Mean motion
15.34389533 rev/d
Perigee alt
462.1 km
Apogee alt
463.4 km
Semi-major
6,840.9 km
B*
5.1112e-5
RAAN
172.0508°
Arg perigee
92.8560°
Mean anomaly
267.2549°
Rev number
15,975

§ Raw data

STARLINK-309211 58383U 23178K   26263.46961464  .00001351  00000+0  51112-4 0  99902 58383  53.1589 172.0508 0000928  92.8560 267.2549 15.34389533159758

JSON: /api/v1/satellites/58383 · /tle

For live sub-satellite position, see the globe view (requires WebGL).

§ Visibility from observer

Set your observer location to see the next 7 days of passes ≥ 10°. The values pass through the URL so the page stays shareable.

No JS? Fill the form by hand. The geolocation button needs JavaScript.